Time,TemperatureF,DewpointF,PressureIn,WindDirection,WindDirectionDegrees,WindSpeedMPH,WindSpeedGustMPH,Humidity,HourlyPrecipIn,Conditions,Clouds,dailyrainin,SoftwareType,DateUTC
2013-01-21 00:03:00,-12.7,-20.0,30.60,NW,304,3.0,10.0,69,0.00,,,0.00,weatherlink.com 1.10,2013-01-21 06:03:00,
2013-01-21 00:18:00,-12.9,-20.0,30.60,NW,316,6.0,8.0,69,0.00,,,0.00,weatherlink.com 1.10,2013-01-21 06:18:00,
2013-01-21 00:33:00,-13.0,-20.0,30.60,WNW,283,3.0,9.0,69,0.00,,,0.00,weatherlink.com 1.10,2013-01-21 06:33:00,
2013-01-21 00:48:00,-12.9,-20.0,30.59,West,268,1.0,9.0,69,0.00,,,0.00,weatherlink.com 1.10,2013-01-21 06:48:00,
2013-01-21 01:03:00,-13.0,-20.0,30.60,WNW,285,2.0,8.0,69,0.00,,,0.00,weatherlink.com 1.10,2013-01-21 07:03:00,
2013-01-21 01:18:00,-13.3,-21.0,30.60,West,273,8.0,9.0,69,0.00,,,0.00,weatherlink.com 1.10,2013-01-21 07:18:00,
2013-01-21 01:33:00,-13.5,-21.0,30.59,WNW,288,2.0,10.0,70,0.00,,,0.00,weatherlink.com 1.10,2013-01-21 07:33:00,
2013-01-21 01:49:00,-13.7,-21.0,30.60,WNW,283,3.0,8.0,70,0.00,,,0.00,weatherlink.com 1.10,2013-01-21 07:49:00,
2013-01-21 02:04:00,-13.7,-21.0,30.60,WSW,252,4.0,7.0,69,0.00,,,0.00,weatherlink.com 1.10,2013-01-21 08:04:00,
2013-01-21 02:19:00,-13.9,-21.0,30.60,West,266,2.0,9.0,70,0.00,,,0.00,weatherlink.com 1.10,2013-01-21 08:19:00,
2013-01-21 02:34:00,-13.9,-21.0,30.60,WNW,299,2.0,7.0,69,0.00,,,0.00,weatherlink.com 1.10,2013-01-21 08:34:00,
2013-01-21 02:49:00,-14.1,-21.0,30.60,WNW,285,1.0,7.0,70,0.00,,,0.00,weatherlink.com 1.10,2013-01-21 08:49:00,
2013-01-21 03:04:00,-14.2,-22.0,30.59,WNW,289,5.0,6.0,69,0.00,,,0.00,weatherlink.com 1.10,2013-01-21 09:04:00,
2013-01-21 03:19:00,-14.4,-22.0,30.59,West,268,1.0,8.0,69,0.00,,,0.00,weatherlink.com 1.10,2013-01-21 09:19:00,
2013-01-21 03:34:00,-14.7,-22.0,30.59,West,274,2.0,5.0,70,0.00,,,0.00,weatherlink.com 1.10,2013-01-21 09:34:00,
2013-01-21 03:49:00,-14.8,-22.0,30.59,West,274,2.0,8.0,69,0.00,,,0.00,weatherlink.com 1.10,2013-01-21 09:49:00,
2013-01-21 04:04:00,-15.0,-22.0,30.58,West,266,3.0,7.0,70,0.00,,,0.00,weatherlink.com 1.10,2013-01-21 10:04:00,
2013-01-21 04:19:00,-15.1,-22.0,30.59,West,264,2.0,6.0,70,0.00,,,0.00,weatherlink.com 1.10,2013-01-21 10:19:00,
2013-01-21 04:34:00,-15.1,-22.0,30.58,WNW,283,2.0,8.0,69,0.00,,,0.00,weatherlink.com 1.10,2013-01-21 10:34:00,
2013-01-21 04:49:00,-15.4,-23.0,30.58,West,260,2.0,7.0,69,0.00,,,0.00,weatherlink.com 1.10,2013-01-21 10:49:00,
2013-01-21 05:05:00,-15.5,-23.0,30.58,West,263,2.0,8.0,69,0.00,,,0.00,weatherlink.com 1.10,2013-01-21 11:05:00,
2013-01-21 05:20:00,-15.5,-23.0,30.58,NW,317,4.0,9.0,69,0.00,,,0.00,weatherlink.com 1.10,2013-01-21 11:20:00,
2013-01-21 05:35:00,-15.5,-23.0,30.58,WNW,283,2.0,8.0,69,0.00,,,0.00,weatherlink.com 1.10,2013-01-21 11:35:00,
2013-01-21 05:50:00,-15.6,-23.0,30.58,West,277,3.0,10.0,69,0.00,,,0.00,weatherlink.com 1.10,2013-01-21 11:50:00,
2013-01-21 06:05:00,-15.7,-23.0,30.58,WNW,283,3.0,8.0,69,0.00,,,0.00,weatherlink.com 1.10,2013-01-21 12:05:00,
2013-01-21 06:20:00,-15.7,-23.0,30.58,WNW,284,1.0,7.0,69,0.00,,,0.00,weatherlink.com 1.10,2013-01-21 12:20:00,
2013-01-21 06:35:00,-15.7,-23.0,30.57,West,279,2.0,8.0,69,0.00,,,0.00,weatherlink.com 1.10,2013-01-21 12:35:00,
2013-01-21 06:50:00,-15.7,-23.0,30.57,WNW,295,4.0,11.0,69,0.00,,,0.00,weatherlink.com 1.10,2013-01-21 12:50:00,
2013-01-21 07:05:00,-15.7,-23.0,30.57,West,276,2.0,10.0,69,0.00,,,0.00,weatherlink.com 1.10,2013-01-21 13:05:00,
2013-01-21 07:20:00,-15.7,-23.0,30.57,WNW,294,4.0,11.0,69,0.00,,,0.00,weatherlink.com 1.10,2013-01-21 13:20:00,
2013-01-21 07:35:00,-15.7,-23.0,30.57,WNW,295,2.0,11.0,69,0.00,,,0.00,weatherlink.com 1.10,2013-01-21 13:35:00,
2013-01-21 07:50:00,-15.7,-23.0,30.57,WNW,302,4.0,12.0,69,0.00,,,0.00,weatherlink.com 1.10,2013-01-21 13:50:00,
2013-01-21 08:05:00,-15.7,-23.0,30.57,WNW,284,3.0,10.0,69,0.00,,,0.00,weatherlink.com 1.10,2013-01-21 14:05:00,
2013-01-21 08:20:00,-15.8,-23.0,30.57,West,271,2.0,10.0,69,0.00,,,0.00,weatherlink.com 1.10,2013-01-21 14:20:00,
2013-01-21 08:36:00,-15.7,-23.0,30.58,West,260,3.0,7.0,69,0.00,,,0.00,weatherlink.com 1.10,2013-01-21 14:36:00,
2013-01-21 08:51:00,-15.3,-23.0,30.58,NW,304,4.0,8.0,69,0.00,,,0.00,weatherlink.com 1.10,2013-01-21 14:51:00,
2013-01-21 09:06:00,-14.8,-22.0,30.58,NW,304,1.0,10.0,69,0.00,,,0.00,weatherlink.com 1.10,2013-01-21 15:06:00,
2013-01-21 09:21:00,-14.4,-22.0,30.59,WNW,294,3.0,7.0,68,0.00,,,0.00,weatherlink.com 1.10,2013-01-21 15:21:00,
2013-01-21 09:36:00,-14.0,-22.0,30.59,West,280,3.0,7.0,68,0.00,,,0.00,weatherlink.com 1.10,2013-01-21 15:36:00,
2013-01-21 09:51:00,-13.5,-21.0,30.60,West,272,2.0,7.0,68,0.00,,,0.00,weatherlink.com 1.10,2013-01-21 15:51:00,
2013-01-21 10:06:00,-13.0,-21.0,30.59,WNW,283,3.0,11.0,67,0.00,,,0.00,weatherlink.com 1.10,2013-01-21 16:06:00,
2013-01-21 10:21:00,-12.4,-20.0,30.59,West,278,4.0,8.0,67,0.00,,,0.00,weatherlink.com 1.10,2013-01-21 16:21:00,
2013-01-21 10:36:00,-12.2,-21.0,30.59,WNW,289,4.0,7.0,66,0.00,,,0.00,weatherlink.com 1.10,2013-01-21 16:36:00,
2013-01-21 10:51:00,-11.6,-20.0,30.60,West,267,5.0,7.0,67,0.00,,,0.00,weatherlink.com 1.10,2013-01-21 16:51:00,
2013-01-21 11:06:00,-11.0,-19.0,30.60,West,273,3.0,6.0,67,0.00,,,0.00,weatherlink.com 1.10,2013-01-21 17:06:00,
2013-01-21 11:21:00,-10.4,-19.0,30.59,WNW,297,4.0,8.0,66,0.00,,,0.00,weatherlink.com 1.10,2013-01-21 17:21:00,
2013-01-21 11:36:00,-10.1,-19.0,30.59,West,280,4.0,8.0,66,0.00,,,0.00,weatherlink.com 1.10,2013-01-21 17:36:00,
2013-01-21 11:51:00,-9.4,-18.0,30.58,West,269,2.0,7.0,67,0.00,,,0.00,weatherlink.com 1.10,2013-01-21 17:51:00,
2013-01-21 12:07:00,-9.0,-18.0,30.57,West,278,2.0,7.0,66,0.00,,,0.00,weatherlink.com 1.10,2013-01-21 18:07:00,
2013-01-21 12:22:00,-8.8,-17.0,30.57,West,272,6.0,10.0,66,0.00,,,0.00,weatherlink.com 1.10,2013-01-21 18:22:00,
2013-01-21 12:37:00,-8.0,-17.0,30.56,West,269,4.0,9.0,66,0.00,,,0.00,weatherlink.com 1.10,2013-01-21 18:37:00,
2013-01-21 12:52:00,-7.7,-17.0,30.55,West,274,7.0,11.0,65,0.00,,,0.00,weatherlink.com 1.10,2013-01-21 18:52:00,
2013-01-21 13:07:00,-7.6,-17.0,30.54,West,276,5.0,10.0,65,0.00,,,0.00,weatherlink.com 1.10,2013-01-21 19:07:00,
2013-01-21 13:22:00,-7.1,-16.0,30.54,NNW,340,4.0,10.0,65,0.00,,,0.00,weatherlink.com 1.10,2013-01-21 19:22:00,
2013-01-21 13:37:00,-6.9,-16.0,30.54,WNW,302,4.0,8.0,65,0.00,,,0.00,weatherlink.com 1.10,2013-01-21 19:37:00,
2013-01-21 13:52:00,-6.7,-16.0,30.54,WNW,293,3.0,8.0,65,0.00,,,0.00,weatherlink.com 1.10,2013-01-21 19:52:00,
2013-01-21 14:07:00,-6.6,-15.0,30.54,WSW,238,1.0,10.0,66,0.00,,,0.00,weatherlink.com 1.10,2013-01-21 20:07:00,
2013-01-21 14:22:00,-6.3,-15.0,30.54,NW,318,3.0,10.0,65,0.00,,,0.00,weatherlink.com 1.10,2013-01-21 20:22:00,
2013-01-21 14:37:00,-5.9,-15.0,30.54,West,274,3.0,9.0,65,0.00,,,0.00,weatherlink.com 1.10,2013-01-21 20:37:00,
2013-01-21 14:52:00,-5.9,-15.0,30.53,WNW,302,0.0,12.0,64,0.00,,,0.00,weatherlink.com 1.10,2013-01-21 20:52:00,
2013-01-21 15:07:00,-5.5,-15.0,30.54,NNW,329,4.0,9.0,64,0.00,,,0.00,weatherlink.com 1.10,2013-01-21 21:07:00,
2013-01-21 15:22:00,-5.5,-15.0,30.54,NNW,335,2.0,10.0,63,0.00,,,0.00,weatherlink.com 1.10,2013-01-21 21:22:00,
2013-01-21 15:38:00,-5.6,-15.0,30.55,NW,314,6.0,11.0,64,0.00,,,0.00,weatherlink.com 1.10,2013-01-21 21:38:00,
2013-01-21 15:53:00,-5.8,-15.0,30.54,NW,307,6.0,8.0,65,0.00,,,0.00,weatherlink.com 1.10,2013-01-21 21:53:00,
2013-01-21 16:08:00,-6.1,-14.0,30.54,WNW,289,3.0,9.0,67,0.00,,,0.00,weatherlink.com 1.10,2013-01-21 22:08:00,
2013-01-21 16:23:00,-6.1,-15.0,30.54,NW,314,3.0,10.0,65,0.00,,,0.00,weatherlink.com 1.10,2013-01-21 22:23:00,
2013-01-21 16:38:00,-6.2,-15.0,30.54,WNW,293,3.0,8.0,65,0.00,,,0.00,weatherlink.com 1.10,2013-01-21 22:38:00,
2013-01-21 16:53:00,-6.7,-15.0,30.55,NW,308,6.0,9.0,66,0.00,,,0.00,weatherlink.com 1.10,2013-01-21 22:53:00,
2013-01-21 17:08:00,-7.4,-16.0,30.55,WNW,295,4.0,8.0,67,0.00,,,0.00,weatherlink.com 1.10,2013-01-21 23:08:00,
2013-01-21 17:23:00,-8.1,-16.0,30.55,NW,320,1.0,6.0,69,0.00,,,0.00,weatherlink.com 1.10,2013-01-21 23:23:00,
2013-01-21 17:38:00,-8.5,-16.0,30.54,WNW,290,0.0,8.0,68,0.00,,,0.00,weatherlink.com 1.10,2013-01-21 23:38:00,
2013-01-21 17:53:00,-8.8,-16.0,30.54,NW,318,2.0,5.0,69,0.00,,,0.00,weatherlink.com 1.10,2013-01-21 23:53:00,
2013-01-21 18:08:00,-9.3,-17.0,30.54,NW,321,1.0,4.0,69,0.00,,,0.00,weatherlink.com 1.10,2013-01-22 00:08:00,
2013-01-21 18:23:00,-9.9,-17.0,30.54,WNW,302,0.0,4.0,70,0.00,,,0.00,weatherlink.com 1.10,2013-01-22 00:23:00,
2013-01-21 18:38:00,-10.8,-18.0,30.54,West,260,0.0,1.0,71,0.00,,,0.00,weatherlink.com 1.10,2013-01-22 00:38:00,
2013-01-21 18:54:00,-11.7,-18.0,30.54,WNW,300,0.0,0.0,72,0.00,,,0.00,weatherlink.com 1.10,2013-01-22 00:54:00,
2013-01-21 19:09:00,-12.9,-19.0,30.54,WNW,302,0.0,0.0,73,0.00,,,0.00,weatherlink.com 1.10,2013-01-22 01:09:00,
2013-01-21 19:24:00,-12.8,-18.0,30.54,WNW,301,0.0,0.0,76,0.00,,,0.00,weatherlink.com 1.10,2013-01-22 01:24:00,
2013-01-21 19:39:00,-12.6,-18.0,30.55,WSW,257,0.0,1.0,75,0.00,,,0.00,weatherlink.com 1.10,2013-01-22 01:39:00,
2013-01-21 19:54:00,-13.2,-19.0,30.55,WSW,257,0.0,0.0,75,0.00,,,0.00,weatherlink.com 1.10,2013-01-22 01:54:00,
2013-01-21 20:09:00,-13.1,-19.0,30.55,WSW,257,0.0,0.0,75,0.00,,,0.00,weatherlink.com 1.10,2013-01-22 02:09:00,
2013-01-21 20:24:00,-13.3,-19.0,30.55,WSW,257,0.0,0.0,75,0.00,,,0.00,weatherlink.com 1.10,2013-01-22 02:24:00,
2013-01-21 20:39:00,-13.3,-19.0,30.55,WSW,257,0.0,0.0,76,0.00,,,0.00,weatherlink.com 1.10,2013-01-22 02:39:00,
2013-01-21 20:54:00,-13.8,-19.0,30.55,WSW,250,0.0,1.0,76,0.00,,,0.00,weatherlink.com 1.10,2013-01-22 02:54:00,
2013-01-21 21:09:00,-13.6,-19.0,30.55,West,281,0.0,1.0,76,0.00,,,0.00,weatherlink.com 1.10,2013-01-22 03:09:00,
2013-01-21 21:24:00,-13.6,-20.0,30.55,West,264,0.0,1.0,74,0.00,,,0.00,weatherlink.com 1.10,2013-01-22 03:24:00,
2013-01-21 21:39:00,-13.8,-20.0,30.55,West,264,0.0,0.0,75,0.00,,,0.00,weatherlink.com 1.10,2013-01-22 03:39:00,
2013-01-21 21:54:00,-13.7,-20.0,30.55,West,264,0.0,0.0,74,0.00,,,0.00,weatherlink.com 1.10,2013-01-22 03:54:00,
2013-01-21 22:09:00,-13.8,-20.0,30.55,West,264,0.0,1.0,74,0.00,,,0.00,weatherlink.com 1.10,2013-01-22 04:09:00,
2013-01-21 22:25:00,-13.3,-19.0,30.55,West,266,0.0,1.0,74,0.00,,,0.00,weatherlink.com 1.10,2013-01-22 04:25:00,
2013-01-21 22:40:00,-13.4,-19.0,30.55,WSW,252,0.0,1.0,74,0.00,,,0.00,weatherlink.com 1.10,2013-01-22 04:40:00,
2013-01-21 22:55:00,-13.5,-20.0,30.55,WSW,252,0.0,0.0,73,0.00,,,0.00,weatherlink.com 1.10,2013-01-22 04:55:00,
2013-01-21 23:10:00,-13.5,-20.0,30.55,West,266,0.0,1.0,73,0.00,,,0.00,weatherlink.com 1.10,2013-01-22 05:10:00,
2013-01-21 23:25:00,-13.4,-20.0,30.56,West,270,0.0,1.0,73,0.00,,,0.00,weatherlink.com 1.10,2013-01-22 05:25:00,
2013-01-21 23:40:00,-12.7,-19.0,30.57,West,267,0.0,1.0,73,0.00,,,0.00,weatherlink.com 1.10,2013-01-22 05:40:00,
2013-01-21 23:55:00,-12.7,-19.0,30.57,West,273,0.0,2.0,72,0.00,,,0.00,weatherlink.com 1.10,2013-01-22 05:55:00,